AirNav   ProFlight Series 2 Aviation Headset
 
 952 users online  

2S8 Wilbur Airport
Wilbur, Washington, USA

GOING TO WILBUR?


FAA INFORMATION EFFECTIVE 16 JULY 2020

Location

FAA Identifier: 2S8
Lat/Long: 47-45-12.2000N 118-44-38.1000W
47-45.203333N 118-44.635000W
47.7533889,-118.7439167
(estimated)
Elevation: 2183.3 ft. / 665.5 m (surveyed)
Variation: 15E (2015)
From city: 2 miles SW of WILBUR, WA
Time zone: UTC -7 (UTC -8 during Standard Time)
Zip code: 99185

Airport Operations

Airport use: Open to the public
Activation date: 12/1938
Control tower: no
ARTCC: SEATTLE CENTER
FSS: SEATTLE FLIGHT SERVICE STATION
NOTAMs facility: SEA (NOTAM-D service available)
Attendance: OCT-MAR MON-FRI 0800-1700, APR-SEP MON-SAT 0500-1400
Wind indicator: lighted
Segmented circle: yes
LIGHTED.
Lights: ACTVT MIRL RY 02/20 - CTAF. PAPI RY 20 OPER CONTINUOUSLY.
Beacon: white-green (lighted land airport)
Operates sunset to sunrise.

Airport Communications

CTAF: 122.9
WX AWOS-2: 124.175 (509-647-0337)
GRANT COUNTY APPROACH: 126.4
GRANT COUNTY DEPARTURE: 126.4
IC: 126.4
  • APCH/DEP SVC PRVDD BY SEATTLE ARTCC ON FREQS 126.1/291.6 (MARLIN RCAG) WHEN GRANT COUNTY APCH CTL CLSD.

Nearby radio navigation aids

VOR radial/distance  VOR name  Freq  Var
EPHr030/35.6EPHRATA VORTAC112.6021E
MWHr018/40.0MOSES LAKE VOR/DME115.0018E

Airport Services

Fuel available: 100LL JET-A
Parking: tiedowns
Airframe service: MINOR
Powerplant service: MINOR
Bottled oxygen: NONE
Bulk oxygen: NONE

Runway Information

Runway 2/20

Dimensions: 3851 x 60 ft. / 1174 x 18 m
Surface: asphalt, in excellent condition
Weight bearing capacity: 
Single wheel: 15.5
Runway edge lights: medium intensity
RUNWAY 2  RUNWAY 20
Latitude: 47-44.948315N47-45.458557N
Longitude: 118-44.912947W118-44.356528W
Elevation: 2165.4 ft.2183.1 ft.
Traffic pattern: leftleft
Runway heading: 021 magnetic, 036 true201 magnetic, 216 true
Markings: nonprecision, in good conditionbasic, in good condition
Visual slope indicator: 2-light PAPI on left (3.00 degrees glide path)
Runway end identifier lights: yesno
Touchdown point: yes, no lightsyes, no lights

Airport Ownership and Management from official FAA records

Ownership: Publicly-owned
Owner: TOWN OF WILBUR
PO BOX 214
WILBUR, WA 99185
Phone 509-647-5821
Manager: ROBERT WYBORNEY
607 NE DELLAH
WILBUR, WA 99185
Phone 509-647-2396

Airport Operational Statistics

Aircraft based on the field: 15
Single engine airplanes: 15
    
Aircraft operations: avg 109/week *
61% transient general aviation
39% local general aviation
* for 12-month period ending 31 December 2018

Additional Remarks

CHECK NOTAMS FOR FIRE FIGHTING OPERATIONS IN SUMMER MONTHS.
WILDLIFE INVOF RUNWAY.
FOR CD CTC SEATTLE ARTCC AT 253-351-3694.

Instrument Procedures

NOTE: All procedures below are presented as PDF files. If you need a reader for these files, you should download the free Adobe Reader.

NOT FOR NAVIGATION. Please procure official charts for flight.
FAA instrument procedures published for use from 16 July 2020 at 0901Z to 13 August 2020 at 0900Z.

 
IAPs - Instrument Approach Procedures
RNAV (GPS)-A   download (167KB)
 
WIPES ONE (OBSTACLE) (RNAV)   download (170KB)
NOTE: Special Take-Off Minimums/Departure Procedures apply   download (223KB)

Other nearby airports with instrument procedures:

KMWH - Grant County International Airport (40 nm SW)
KEPH - Ephrata Municipal Airport (41 nm SW)
KSKA - Fairchild Air Force Base (45 nm E)
KGEG - Spokane International Airport (49 nm E)
KOMK - Omak Airport (53 nm NW)
 
Loc | Ops | Rwys | IFR | FBO | Links
Com | Nav | Svcs | Stats | Notes
Area around 2S8 (Wilbur Airport)
 
Road maps at: MapQuest Bing Google
 
Aerial photo
WARNING: Photo may not be current or correct
Aerial photo of 2S8 (Wilbur Airport)
Do you have a better or more recent aerial photo of Wilbur Airport that you would like to share? If so, please send us your photo.

 
Sectional chart

 
Airport distance calculator
Flying to Wilbur Airport? Find the distance to fly.

From to 2S8

Sunrise and sunset
Times for 09-Aug-2020
 Local
(UTC-7)
 Zulu
(UTC)
Morning civil twilight05:1012:10
Sunrise05:4512:45
Sunset20:1603:16
Evening civil twilight20:5003:50

Current date and time
Zulu (UTC)  10-Aug-2020 02:08:19
Local (UTC-7)  09-Aug-2020 19:08:19
 
METAR
KMWH 
41nm SW 
100152Z 20008KT 10SM CLR 29/04 A3009 RMK AO2 SLP182 T02940044
KEPH 
41nm SW 
100153Z AUTO 23009KT 10SM CLR 28/04 A3009 RMK AO2 SLP181 T02830039
KSKA 
45nm E 
100158Z AUTO 34007KT 10SM CLR 26/01 A3014 RMK AO2 SLP199 T02640009 $
KGEG 
50nm E 
100153Z 30007KT 10SM FEW085 FEW280 26/01 A3013 RMK AO2 SLP193 FU FEW085 FU DSNT SW-NW T02610011
TAF
KMWH 
41nm SW 
091727Z 0918/1018 33011KT P6SM SKC FM092100 27006KT P6SM SKC FM100500 VRB04KT P6SM SKC
KSKA 
45nm E 
092233Z 0922/1101 26010G15KT 9999 FEW200 QNH2990INS WND 24009KT AFT 1006 TX29/0922Z TN12/1012Z
KGEG 
50nm E 
091727Z 0918/1018 VRB04KT P6SM FEW100 FM092000 27010KT P6SM SKC FM100300 VRB04KT P6SM SKC
NOTAMs
Click for the latest NOTAMs
NOTAMs are issued by the DoD/FAA and will open in a separate window not controlled by AirNav.

 

 
 

FBO, Fuel Providers, and Aircraft Ground Support

  
 Business Name 
 
 Contact 
 
 Services / Description 
 
Fuel Prices
 
Comments
  
Greg's Crop Care Corporation 509-647-2441
no information available

If you are affiliated with Greg's Crop Care Corporation and would like to show here your services, contact info, web link, logo, and more, click here
100LL Jet A
AS $4.00 $3.75 
 Updated 28-Jul-2020
 
   write
AS=Assisted/Self Service
Update Fuel Prices
 

Would you like to see your business listed on this page?

 If your business provides an interesting product or service to pilots, flight crews, aircraft, or users of the Wilbur Airport, you should consider listing it here.  To start the listing process, click on the button below
 
Add a business
 

Other Pages about Wilbur Airport

Update a link
 
Copyright © AirNav, LLC. All rights reserved. Privacy Policy  Contact